Time,TemperatureF,DewpointF,PressureIn,WindDirection,WindDirectionDegrees,WindSpeedMPH,WindSpeedGustMPH,Humidity,HourlyPrecipIn,Conditions,Clouds,dailyrainin,SoftwareType,DateUTC
2013-05-27 00:00:00,73.0,65.0,29.97,ENE,77,0.0,0.0,76,0.00,,,0.00,Weather View 32 v70,2013-05-27 05:00:00,
2013-05-27 00:05:00,73.0,65.0,29.97,ENE,77,0.0,0.0,76,0.00,,,0.00,Weather View 32 v70,2013-05-27 05:05:00,
2013-05-27 00:10:00,73.2,65.2,29.97,ENE,77,0.0,0.0,76,0.00,,,0.00,Weather View 32 v70,2013-05-27 05:10:00,
2013-05-27 00:15:00,73.2,65.2,29.97,ENE,77,0.0,0.0,76,0.00,,,0.00,Weather View 32 v70,2013-05-27 05:15:00,
2013-05-27 00:20:00,73.4,65.3,29.97,ENE,77,0.0,2.0,76,0.00,,,0.00,Weather View 32 v70,2013-05-27 05:20:00,
2013-05-27 00:25:00,73.4,65.3,29.97,ENE,77,0.0,2.0,76,0.00,,,0.00,Weather View 32 v70,2013-05-27 05:25:00,
2013-05-27 00:30:00,73.6,65.5,29.97,East,81,0.0,2.0,76,0.00,,,0.00,Weather View 32 v70,2013-05-27 05:30:00,
2013-05-27 00:35:00,73.8,65.7,29.97,East,81,0.0,2.0,76,0.00,,,0.00,Weather View 32 v70,2013-05-27 05:35:00,
2013-05-27 00:40:00,73.9,66.2,29.97,East,81,0.0,2.0,77,0.00,,,0.00,Weather View 32 v70,2013-05-27 05:40:00,
2013-05-27 00:45:00,73.9,66.2,29.97,East,82,0.0,2.0,77,0.00,,,0.00,Weather View 32 v70,2013-05-27 05:45:00,
2013-05-27 00:50:00,74.1,66.4,29.97,East,96,0.0,3.0,77,0.00,,,0.00,Weather View 32 v70,2013-05-27 05:50:00,
2013-05-27 00:55:00,74.1,66.4,29.97,East,96,0.0,3.0,77,0.00,,,0.00,Weather View 32 v70,2013-05-27 05:55:00,
2013-05-27 01:00:00,74.1,66.4,29.97,East,96,0.0,3.0,77,0.00,,,0.00,Weather View 32 v70,2013-05-27 06:00:00,
2013-05-27 01:05:00,74.1,66.4,29.97,East,96,0.0,3.0,77,0.00,,,0.00,Weather View 32 v70,2013-05-27 06:05:00,
2013-05-27 01:10:00,74.3,66.2,29.97,ESE,117,0.0,3.0,76,0.00,,,0.00,Weather View 32 v70,2013-05-27 06:10:00,
2013-05-27 01:15:00,74.1,66.0,29.97,ESE,116,0.0,3.0,76,0.00,,,0.00,Weather View 32 v70,2013-05-27 06:15:00,
2013-05-27 01:20:00,74.1,66.0,29.97,East,87,0.0,3.0,76,0.00,,,0.00,Weather View 32 v70,2013-05-27 06:20:00,
2013-05-27 01:25:00,74.3,66.2,29.97,East,87,0.0,3.0,76,0.00,,,0.00,Weather View 32 v70,2013-05-27 06:25:00,
2013-05-27 01:30:00,74.1,66.0,29.97,East,85,0.0,3.0,76,0.00,,,0.00,Weather View 32 v70,2013-05-27 06:30:00,
2013-05-27 01:35:00,74.1,66.0,29.97,East,85,0.0,3.0,76,0.00,,,0.00,Weather View 32 v70,2013-05-27 06:35:00,
2013-05-27 01:40:00,74.1,66.0,29.97,East,84,0.0,3.0,76,0.00,,,0.00,Weather View 32 v70,2013-05-27 06:40:00,
2013-05-27 01:45:00,74.1,66.0,29.97,East,84,0.0,3.0,76,0.00,,,0.00,Weather View 32 v70,2013-05-27 06:45:00,
2013-05-27 01:50:00,74.1,66.0,29.97,East,90,0.0,3.0,76,0.00,,,0.00,Weather View 32 v70,2013-05-27 06:50:00,
2013-05-27 01:55:00,74.1,66.0,29.97,East,90,0.0,3.0,76,0.00,,,0.00,Weather View 32 v70,2013-05-27 06:55:00,
2013-05-27 02:00:00,74.1,66.0,29.97,East,90,0.0,3.0,76,0.00,,,0.00,Weather View 32 v70,2013-05-27 07:00:00,
2013-05-27 02:05:00,74.1,66.0,29.97,East,90,0.0,3.0,76,0.00,,,0.00,Weather View 32 v70,2013-05-27 07:05:00,
2013-05-27 02:10:00,73.9,65.9,29.97,East,90,0.0,3.0,76,0.00,,,0.00,Weather View 32 v70,2013-05-27 07:10:00,
2013-05-27 02:15:00,73.9,65.9,29.97,East,90,0.0,3.0,76,0.00,,,0.00,Weather View 32 v70,2013-05-27 07:15:00,
2013-05-27 02:20:00,73.9,65.9,29.97,East,90,0.0,3.0,76,0.00,,,0.00,Weather View 32 v70,2013-05-27 07:20:00,
2013-05-27 02:25:00,73.9,65.9,29.97,East,87,0.0,3.0,76,0.00,,,0.00,Weather View 32 v70,2013-05-27 07:25:00,
2013-05-27 02:30:00,73.8,65.7,29.97,East,98,0.0,2.0,76,0.00,,,0.00,Weather View 32 v70,2013-05-27 07:30:00,
2013-05-27 02:35:00,73.8,65.3,29.97,East,86,0.0,4.0,75,0.00,,,0.00,Weather View 32 v70,2013-05-27 07:35:00,
2013-05-27 02:40:00,73.8,65.3,29.97,East,86,0.0,4.0,75,0.00,,,0.00,Weather View 32 v70,2013-05-27 07:40:00,
2013-05-27 02:50:00,73.8,65.3,29.97,East,86,0.0,4.0,75,0.00,,,0.00,Weather View 32 v70,2013-05-27 07:50:00,
2013-05-27 03:00:00,73.8,64.9,29.97,East,86,0.0,4.0,74,0.00,,,0.00,Weather View 32 v70,2013-05-27 08:00:00,
2013-05-27 03:20:00,73.8,63.7,29.97,East,93,0.0,4.0,71,0.00,,,0.00,Weather View 32 v70,2013-05-27 08:20:00,
2013-05-27 03:25:00,73.8,63.7,29.97,ESE,103,2.0,4.0,71,0.00,,,0.00,Weather View 32 v70,2013-05-27 08:25:00,
2013-05-27 03:30:00,73.9,63.5,29.97,SE,128,0.0,4.0,70,0.00,,,0.00,Weather View 32 v70,2013-05-27 08:30:00,
2013-05-27 03:35:00,73.9,63.5,29.97,East,92,0.0,4.0,70,0.00,,,0.00,Weather View 32 v70,2013-05-27 08:35:00,
2013-05-27 03:40:00,73.8,62.9,29.97,East,92,0.0,4.0,69,0.00,,,0.00,Weather View 32 v70,2013-05-27 08:40:00,
2013-05-27 03:45:00,73.8,65.3,29.97,East,86,0.0,4.0,75,0.00,,,0.00,Weather View 32 v70,2013-05-27 08:45:00,
2013-05-27 03:50:00,73.9,62.7,29.97,SSE,163,0.0,4.0,68,0.00,,,0.00,Weather View 32 v70,2013-05-27 08:50:00,
2013-05-27 03:55:00,73.6,64.8,29.97,East,86,0.0,4.0,74,0.00,,,0.00,Weather View 32 v70,2013-05-27 08:55:00,
2013-05-27 04:05:00,73.8,64.5,29.97,East,86,0.0,4.0,73,0.00,,,0.00,Weather View 32 v70,2013-05-27 09:05:00,
2013-05-27 04:10:00,73.8,64.1,29.97,East,94,0.0,4.0,72,0.00,,,0.00,Weather View 32 v70,2013-05-27 09:10:00,
2013-05-27 04:20:00,73.9,61.8,29.97,South,182,0.0,4.0,66,0.00,,,0.00,Weather View 32 v70,2013-05-27 09:20:00,
2013-05-27 04:25:00,73.9,61.8,29.97,South,182,0.0,4.0,66,0.00,,,0.00,Weather View 32 v70,2013-05-27 09:25:00,
2013-05-27 04:30:00,73.9,61.8,29.97,South,190,0.0,4.0,66,0.00,,,0.00,Weather View 32 v70,2013-05-27 09:30:00,
2013-05-27 04:35:00,73.9,61.8,29.97,South,190,0.0,4.0,66,0.00,,,0.00,Weather View 32 v70,2013-05-27 09:35:00,
2013-05-27 04:40:00,73.9,61.8,29.97,SE,143,0.0,4.0,66,0.00,,,0.00,Weather View 32 v70,2013-05-27 09:40:00,
2013-05-27 04:45:00,73.9,61.8,29.97,SE,143,0.0,4.0,66,0.00,,,0.00,Weather View 32 v70,2013-05-27 09:45:00,
2013-05-27 04:50:00,73.9,61.8,29.97,East,81,0.0,4.0,66,0.00,,,0.00,Weather View 32 v70,2013-05-27 09:50:00,
2013-05-27 04:55:00,73.9,61.8,29.97,East,92,0.0,4.0,66,0.00,,,0.00,Weather View 32 v70,2013-05-27 09:55:00,
2013-05-27 05:00:00,73.9,62.7,29.97,South,181,0.0,4.0,68,0.00,,,0.00,Weather View 32 v70,2013-05-27 10:00:00,
2013-05-27 05:10:00,74.1,61.6,29.97,East,82,0.0,4.0,65,0.00,,,0.00,Weather View 32 v70,2013-05-27 10:10:00,
2013-05-27 05:14:00,73.9,61.8,29.97,South,182,3.0,4.0,66,0.00,,,0.00,Weather View 32 v70,2013-05-27 10:14:00,
2013-05-27 05:30:00,74.3,61.7,29.97,East,82,0.0,3.0,65,0.00,,,0.00,Weather View 32 v70,2013-05-27 10:30:00,
2013-05-27 05:35:00,74.1,61.6,29.97,East,82,0.0,3.0,65,0.00,,,0.00,Weather View 32 v70,2013-05-27 10:35:00,
2013-05-27 05:36:00,73.9,61.8,29.97,South,190,0.0,4.0,66,0.00,,,0.00,Weather View 32 v70,2013-05-27 10:36:00,
2013-05-27 05:45:00,73.9,61.4,30.00,East,79,0.0,3.0,65,0.00,,,0.00,Weather View 32 v70,2013-05-27 10:45:00,
2013-05-27 05:50:00,73.9,61.4,30.00,East,79,0.0,3.0,65,0.00,,,0.00,Weather View 32 v70,2013-05-27 10:50:00,
2013-05-27 05:55:00,73.9,61.8,30.00,East,79,0.0,3.0,66,0.00,,,0.00,Weather View 32 v70,2013-05-27 10:55:00,
2013-05-27 06:00:00,73.9,61.8,30.00,East,79,0.0,3.0,66,0.00,,,0.00,Weather View 32 v70,2013-05-27 11:00:00,
2013-05-27 06:04:00,74.1,61.6,29.97,SE,139,0.0,4.0,65,0.00,,,0.00,Weather View 32 v70,2013-05-27 11:04:00,
2013-05-27 06:05:00,73.9,61.8,30.00,East,79,0.0,3.0,66,0.00,,,0.00,Weather View 32 v70,2013-05-27 11:05:00,
2013-05-27 06:10:00,73.9,61.8,30.00,East,79,0.0,2.0,66,0.00,,,0.00,Weather View 32 v70,2013-05-27 11:10:00,
2013-05-27 06:15:00,74.1,61.6,29.97,East,82,0.0,4.0,65,0.00,,,0.00,Weather View 32 v70,2013-05-27 11:15:00,
2013-05-27 06:20:00,74.3,61.7,29.97,East,82,0.0,4.0,65,0.00,,,0.00,Weather View 32 v70,2013-05-27 11:20:00,
2013-05-27 06:25:00,74.3,61.7,29.97,East,82,0.0,4.0,65,0.00,,,0.00,Weather View 32 v70,2013-05-27 11:25:00,
2013-05-27 06:35:00,74.1,61.6,29.97,East,82,0.0,3.0,65,0.00,,,0.00,Weather View 32 v70,2013-05-27 11:35:00,
2013-05-27 06:40:00,74.1,61.6,30.00,East,79,0.0,3.0,65,0.00,,,0.00,Weather View 32 v70,2013-05-27 11:40:00,
2013-05-27 06:55:00,75.7,62.7,30.00,East,79,0.0,3.0,64,0.00,,,0.00,Weather View 32 v70,2013-05-27 11:55:00,
2013-05-27 07:00:00,75.9,62.4,30.00,East,81,0.0,3.0,63,0.00,,,0.00,Weather View 32 v70,2013-05-27 12:00:00,
2013-05-27 07:20:00,74.1,62.4,30.00,East,79,0.0,2.0,67,0.00,,,0.00,Weather View 32 v70,2013-05-27 12:20:00,
2013-05-27 07:30:00,74.5,62.8,30.00,East,79,0.0,0.0,67,0.00,,,0.00,Weather View 32 v70,2013-05-27 12:30:00,
2013-05-27 07:45:00,75.4,62.8,30.00,East,79,0.0,0.0,65,0.00,,,0.00,Weather View 32 v70,2013-05-27 12:45:00,
2013-05-27 07:50:00,75.6,62.5,30.00,East,79,0.0,3.0,64,0.00,,,0.00,Weather View 32 v70,2013-05-27 12:50:00,
2013-05-27 08:05:00,75.9,62.4,30.00,East,90,3.0,3.0,63,0.00,,,0.00,Weather View 32 v70,2013-05-27 13:05:00,
2013-05-27 08:15:00,76.5,62.0,30.00,East,88,0.0,4.0,61,0.00,,,0.00,Weather View 32 v70,2013-05-27 13:15:00,
2013-05-27 08:20:00,76.8,62.3,30.00,East,88,2.0,4.0,61,0.00,,,0.00,Weather View 32 v70,2013-05-27 13:20:00,
2013-05-27 08:30:00,77.4,61.9,30.00,East,88,2.0,4.0,59,0.00,,,0.00,Weather View 32 v70,2013-05-27 13:30:00,
2013-05-27 08:38:00,77.5,61.5,30.00,East,88,2.0,4.0,58,0.00,,,0.00,Weather View 32 v70,2013-05-27 13:38:00,
2013-05-27 08:44:00,77.7,61.2,30.00,East,94,0.0,4.0,57,0.00,,,0.00,Weather View 32 v70,2013-05-27 13:44:00,
2013-05-27 08:50:00,77.7,60.2,30.00,SE,142,3.0,5.0,55,0.00,,,0.00,Weather View 32 v70,2013-05-27 13:50:00,
2013-05-27 09:00:00,78.1,59.5,30.00,East,81,0.0,5.0,53,0.00,,,0.00,Weather View 32 v70,2013-05-27 14:00:00,
2013-05-27 09:10:00,78.8,59.6,30.00,East,81,0.0,5.0,52,0.00,,,0.00,Weather View 32 v70,2013-05-27 14:10:00,
2013-05-27 09:20:00,79.2,57.7,30.00,East,81,3.0,5.0,48,0.00,,,0.00,Weather View 32 v70,2013-05-27 14:20:00,
2013-05-27 09:30:00,79.7,57.0,30.03,East,95,3.0,5.0,46,0.00,,,0.00,Weather View 32 v70,2013-05-27 14:30:00,
2013-05-27 09:39:00,80.1,57.9,30.03,East,95,2.0,5.0,47,0.00,,,0.00,Weather View 32 v70,2013-05-27 14:39:00,
2013-05-27 09:44:00,80.6,56.6,30.00,East,97,4.0,6.0,44,0.00,,,0.00,Weather View 32 v70,2013-05-27 14:44:00,
2013-05-27 09:50:00,80.8,56.1,30.00,East,96,0.0,6.0,43,0.00,,,0.00,Weather View 32 v70,2013-05-27 14:50:00,
2013-05-27 09:55:00,81.1,55.8,30.00,SSE,164,4.0,6.0,42,0.00,,,0.00,Weather View 32 v70,2013-05-27 14:55:00,
2013-05-27 10:00:00,81.3,54.6,30.00,East,94,4.0,7.0,40,0.00,,,0.00,Weather View 32 v70,2013-05-27 15:00:00,
2013-05-27 10:10:00,81.5,54.8,30.00,ESE,103,4.0,9.0,40,0.00,,,0.00,Weather View 32 v70,2013-05-27 15:10:00,
2013-05-27 10:20:00,83.3,52.7,30.00,ESE,103,2.0,8.0,35,0.00,,,0.00,Weather View 32 v70,2013-05-27 15:20:00,
2013-05-27 10:25:00,82.0,52.4,30.00,East,86,3.0,9.0,36,0.00,,,0.00,Weather View 32 v70,2013-05-27 15:25:00,
2013-05-27 10:30:00,82.0,53.1,30.00,East,96,3.0,9.0,37,0.00,,,0.00,Weather View 32 v70,2013-05-27 15:30:00,
2013-05-27 10:39:00,82.2,51.8,30.00,SSW,196,6.0,9.0,35,0.00,,,0.00,Weather View 32 v70,2013-05-27 15:39:00,
2013-05-27 10:45:00,82.6,52.8,30.03,ESE,110,6.0,9.0,36,0.00,,,0.00,Weather View 32 v70,2013-05-27 15:45:00,
2013-05-27 10:50:00,82.6,52.1,30.03,ESE,103,3.0,9.0,35,0.00,,,0.00,Weather View 32 v70,2013-05-27 15:50:00,
2013-05-27 11:00:00,82.8,53.7,30.03,South,179,0.0,9.0,37,0.00,,,0.00,Weather View 32 v70,2013-05-27 16:00:00,
2013-05-27 11:05:00,83.1,54.1,30.03,ENE,64,2.0,8.0,37,0.00,,,0.00,Weather View 32 v70,2013-05-27 16:05:00,
2013-05-27 11:14:00,83.3,52.7,30.00,East,98,4.0,8.0,35,0.00,,,0.00,Weather View 32 v70,2013-05-27 16:14:00,
2013-05-27 11:25:00,83.1,53.3,30.03,East,90,3.0,8.0,36,0.00,,,0.00,Weather View 32 v70,2013-05-27 16:25:00,
2013-05-27 11:30:00,83.3,53.5,30.03,East,87,0.0,6.0,36,0.00,,,0.00,Weather View 32 v70,2013-05-27 16:30:00,
2013-05-27 11:35:00,83.5,53.6,30.03,ESE,123,0.0,8.0,36,0.00,,,0.00,Weather View 32 v70,2013-05-27 16:35:00,
2013-05-27 11:40:00,83.7,53.0,30.00,East,93,3.0,8.0,35,0.00,,,0.00,Weather View 32 v70,2013-05-27 16:40:00,
2013-05-27 11:50:00,83.5,52.1,30.00,ESE,103,4.0,8.0,34,0.00,,,0.00,Weather View 32 v70,2013-05-27 16:50:00,
2013-05-27 11:55:00,83.5,51.3,30.00,ESE,107,3.0,8.0,33,0.00,,,0.00,Weather View 32 v70,2013-05-27 16:55:00,
2013-05-27 12:00:00,83.3,51.9,30.00,East,91,0.0,8.0,34,0.00,,,0.00,Weather View 32 v70,2013-05-27 17:00:00,
2013-05-27 12:10:00,83.3,50.3,30.00,SSE,158,3.0,8.0,32,0.00,,,0.00,Weather View 32 v70,2013-05-27 17:10:00,
2013-05-27 12:20:00,83.5,51.3,30.00,ENE,76,5.0,8.0,33,0.00,,,0.00,Weather View 32 v70,2013-05-27 17:20:00,
2013-05-27 12:25:00,83.5,51.3,30.00,East,96,3.0,8.0,33,0.00,,,0.00,Weather View 32 v70,2013-05-27 17:25:00,
2013-05-27 12:30:00,83.7,51.4,30.00,ESE,106,3.0,8.0,33,0.00,,,0.00,Weather View 32 v70,2013-05-27 17:30:00,
2013-05-27 12:40:00,83.5,49.6,30.00,ESE,122,3.0,8.0,31,0.00,,,0.00,Weather View 32 v70,2013-05-27 17:40:00,
2013-05-27 12:50:00,83.3,50.3,30.00,South,178,4.0,8.0,32,0.00,,,0.00,Weather View 32 v70,2013-05-27 17:50:00,
2013-05-27 13:00:00,83.5,50.4,30.00,South,176,5.0,8.0,32,0.00,,,0.00,Weather View 32 v70,2013-05-27 18:00:00,
2013-05-27 13:05:00,83.7,49.7,30.00,South,183,5.0,8.0,31,0.00,,,0.00,Weather View 32 v70,2013-05-27 18:05:00,
2013-05-27 13:10:00,83.5,49.6,30.00,SE,127,3.0,8.0,31,0.00,,,0.00,Weather View 32 v70,2013-05-27 18:10:00,
2013-05-27 13:15:00,83.5,51.3,30.00,SSE,165,4.0,11.0,33,0.00,,,0.00,Weather View 32 v70,2013-05-27 18:15:00,
2013-05-27 13:20:00,83.7,50.6,30.00,East,82,0.0,11.0,32,0.00,,,0.00,Weather View 32 v70,2013-05-27 18:20:00,
2013-05-27 13:30:00,83.8,52.4,30.00,East,99,0.0,11.0,34,0.00,,,0.00,Weather View 32 v70,2013-05-27 18:30:00,
2013-05-27 13:35:00,83.8,53.2,30.00,South,171,0.0,11.0,35,0.00,,,0.00,Weather View 32 v70,2013-05-27 18:35:00,
2013-05-27 13:40:00,83.8,53.2,30.00,ESE,115,3.0,11.0,35,0.00,,,0.00,Weather View 32 v70,2013-05-27 18:40:00,
2013-05-27 13:50:00,83.8,53.9,30.00,SSE,158,0.0,11.0,36,0.00,,,0.00,Weather View 32 v70,2013-05-27 18:50:00,
2013-05-27 13:55:00,84.0,55.6,30.00,East,88,3.0,11.0,38,0.00,,,0.00,Weather View 32 v70,2013-05-27 18:55:00,
2013-05-27 14:00:00,84.0,54.1,30.00,ESE,105,4.0,11.0,36,0.00,,,0.00,Weather View 32 v70,2013-05-27 19:00:00,
2013-05-27 14:10:00,83.5,53.6,29.97,ENE,78,5.0,11.0,36,0.00,,,0.00,Weather View 32 v70,2013-05-27 19:10:00,
2013-05-27 14:20:00,83.7,53.8,29.97,SE,135,8.0,9.0,36,0.00,,,0.00,Weather View 32 v70,2013-05-27 19:20:00,
2013-05-27 14:30:00,84.0,54.1,29.97,East,85,4.0,9.0,36,0.00,,,0.00,Weather View 32 v70,2013-05-27 19:30:00,
2013-05-27 14:40:00,84.4,54.4,29.97,East,88,3.0,9.0,36,0.00,,,0.00,Weather View 32 v70,2013-05-27 19:40:00,
2013-05-27 14:50:00,84.7,56.9,29.97,East,82,3.0,8.0,39,0.00,,,0.00,Weather View 32 v70,2013-05-27 19:50:00,
2013-05-27 15:00:00,84.0,57.0,29.97,South,172,4.0,9.0,40,0.00,,,0.00,Weather View 32 v70,2013-05-27 20:00:00,
2013-05-27 15:05:00,84.4,56.6,29.97,East,83,4.0,9.0,39,0.00,,,0.00,Weather View 32 v70,2013-05-27 20:05:00,
2013-05-27 15:10:00,84.6,56.8,29.97,SE,125,5.0,9.0,39,0.00,,,0.00,Weather View 32 v70,2013-05-27 20:10:00,
2013-05-27 15:20:00,85.1,58.0,29.97,ESE,105,5.0,9.0,40,0.00,,,0.00,Weather View 32 v70,2013-05-27 20:20:00,
2013-05-27 15:30:00,84.4,56.6,29.97,East,90,0.0,9.0,39,0.00,,,0.00,Weather View 32 v70,2013-05-27 20:30:00,
2013-05-27 15:40:00,83.7,56.0,29.94,SE,129,3.0,9.0,39,0.00,,,0.00,Weather View 32 v70,2013-05-27 20:40:00,
2013-05-27 15:50:00,83.1,56.2,29.94,SSE,162,2.0,9.0,40,0.00,,,0.00,Weather View 32 v70,2013-05-27 20:50:00,
2013-05-27 16:00:00,82.8,55.2,29.94,ESE,103,3.0,8.0,39,0.00,,,0.00,Weather View 32 v70,2013-05-27 21:00:00,
2013-05-27 16:10:00,82.4,56.3,29.94,SE,139,5.0,6.0,41,0.00,,,0.00,Weather View 32 v70,2013-05-27 21:10:00,
2013-05-27 16:15:00,82.2,56.1,29.94,East,88,3.0,6.0,41,0.00,,,0.00,Weather View 32 v70,2013-05-27 21:15:00,
2013-05-27 16:20:00,82.0,56.6,29.94,SE,132,2.0,6.0,42,0.00,,,0.00,Weather View 32 v70,2013-05-27 21:20:00,
2013-05-27 16:30:00,81.7,55.6,29.94,South,186,6.0,6.0,41,0.00,,,0.00,Weather View 32 v70,2013-05-27 21:30:00,
2013-05-27 16:40:00,82.0,56.6,29.94,East,99,0.0,6.0,42,0.00,,,0.00,Weather View 32 v70,2013-05-27 21:40:00,
2013-05-27 16:50:00,81.7,55.6,29.94,ENE,78,4.0,6.0,41,0.00,,,0.00,Weather View 32 v70,2013-05-27 21:50:00,
2013-05-27 16:55:00,81.9,57.1,29.94,East,83,3.0,6.0,43,0.00,,,0.00,Weather View 32 v70,2013-05-27 21:55:00,
2013-05-27 17:00:00,82.4,56.9,29.94,ESE,107,0.0,6.0,42,0.00,,,0.00,Weather View 32 v70,2013-05-27 22:00:00,
2013-05-27 17:10:00,82.2,56.8,29.94,ENE,74,5.0,6.0,42,0.00,,,0.00,Weather View 32 v70,2013-05-27 22:10:00,
2013-05-27 17:15:00,82.0,56.6,29.94,East,101,4.0,6.0,42,0.00,,,0.00,Weather View 32 v70,2013-05-27 22:15:00,
2013-05-27 17:20:00,81.9,56.4,29.94,ENE,70,3.0,6.0,42,0.00,,,0.00,Weather View 32 v70,2013-05-27 22:20:00,
2013-05-27 17:25:00,81.3,55.3,29.94,East,96,3.0,6.0,41,0.00,,,0.00,Weather View 32 v70,2013-05-27 22:25:00,
2013-05-27 17:30:00,81.1,55.8,29.94,ESE,109,0.0,6.0,42,0.00,,,0.00,Weather View 32 v70,2013-05-27 22:30:00,
2013-05-27 17:40:00,81.9,55.8,29.94,East,86,0.0,6.0,41,0.00,,,0.00,Weather View 32 v70,2013-05-27 22:40:00,
2013-05-27 17:50:00,83.7,55.3,29.94,East,96,0.0,6.0,38,0.00,,,0.00,Weather View 32 v70,2013-05-27 22:50:00,
2013-05-27 17:55:00,83.1,54.8,29.94,SSE,159,3.0,6.0,38,0.00,,,0.00,Weather View 32 v70,2013-05-27 22:55:00,
2013-05-27 18:00:00,82.8,55.2,29.94,ESE,114,0.0,5.0,39,0.00,,,0.00,Weather View 32 v70,2013-05-27 23:00:00,
2013-05-27 18:10:00,82.2,55.4,29.94,SE,135,2.0,6.0,40,0.00,,,0.00,Weather View 32 v70,2013-05-27 23:10:00,
2013-05-27 18:20:00,81.5,55.4,29.94,SE,131,0.0,6.0,41,0.00,,,0.00,Weather View 32 v70,2013-05-27 23:20:00,
2013-05-27 18:30:00,80.4,54.5,29.94,East,89,0.0,6.0,41,0.00,,,0.00,Weather View 32 v70,2013-05-27 23:30:00,
2013-05-27 18:40:00,79.7,53.8,29.94,East,83,0.0,6.0,41,0.00,,,0.00,Weather View 32 v70,2013-05-27 23:40:00,
2013-05-27 18:50:00,79.3,53.5,29.94,ESE,112,3.0,6.0,41,0.00,,,0.00,Weather View 32 v70,2013-05-27 23:50:00,
2013-05-27 19:00:00,79.0,54.5,29.94,SSE,168,3.0,6.0,43,0.00,,,0.00,Weather View 32 v70,2013-05-28 00:00:00,
2013-05-27 19:10:00,78.8,55.0,29.94,East,89,3.0,6.0,44,0.00,,,0.00,Weather View 32 v70,2013-05-28 00:10:00,
2013-05-27 19:15:00,78.6,55.4,29.94,East,85,3.0,6.0,45,0.00,,,0.00,Weather View 32 v70,2013-05-28 00:15:00,
2013-05-27 19:20:00,78.6,55.4,29.94,East,94,0.0,6.0,45,0.00,,,0.00,Weather View 32 v70,2013-05-28 00:20:00,
2013-05-27 19:25:00,78.4,55.9,29.94,East,86,0.0,5.0,46,0.00,,,0.00,Weather View 32 v70,2013-05-28 00:25:00,
2013-05-27 19:30:00,78.3,55.7,29.94,SE,130,0.0,5.0,46,0.00,,,0.00,Weather View 32 v70,2013-05-28 00:30:00,
2013-05-27 19:35:00,77.9,56.0,29.94,East,82,0.0,5.0,47,0.00,,,0.00,Weather View 32 v70,2013-05-28 00:35:00,
2013-05-27 19:40:00,77.7,55.8,29.94,ENE,76,0.0,5.0,47,0.00,,,0.00,Weather View 32 v70,2013-05-28 00:40:00,
2013-05-27 19:45:00,77.5,56.2,29.94,ENE,76,0.0,5.0,48,0.00,,,0.00,Weather View 32 v70,2013-05-28 00:45:00,
2013-05-27 19:50:00,77.4,56.1,29.94,East,87,0.0,4.0,48,0.00,,,0.00,Weather View 32 v70,2013-05-28 00:50:00,
2013-05-27 20:00:00,77.2,56.5,29.94,East,87,0.0,4.0,49,0.00,,,0.00,Weather View 32 v70,2013-05-28 01:00:00,
2013-05-27 20:05:00,77.0,56.9,29.94,East,87,0.0,4.0,50,0.00,,,0.00,Weather View 32 v70,2013-05-28 01:05:00,
2013-05-27 20:10:00,76.6,57.1,29.94,East,87,0.0,4.0,51,0.00,,,0.00,Weather View 32 v70,2013-05-28 01:10:00,
2013-05-27 20:20:00,76.3,57.8,29.94,East,87,0.0,4.0,53,0.00,,,0.00,Weather View 32 v70,2013-05-28 01:20:00,
2013-05-27 20:30:00,75.7,57.9,29.94,East,87,0.0,4.0,54,0.00,,,0.00,Weather View 32 v70,2013-05-28 01:30:00,
2013-05-27 20:40:00,75.4,58.5,29.94,East,87,0.0,4.0,56,0.00,,,0.00,Weather View 32 v70,2013-05-28 01:40:00,
2013-05-27 20:45:00,75.2,58.4,29.94,East,87,0.0,4.0,56,0.00,,,0.00,Weather View 32 v70,2013-05-28 01:45:00,
2013-05-27 20:55:00,75.0,58.7,29.94,East,87,0.0,0.0,57,0.00,,,0.00,Weather View 32 v70,2013-05-28 01:55:00,
2013-05-27 21:00:00,74.8,59.0,29.94,East,87,0.0,0.0,58,0.00,,,0.00,Weather View 32 v70,2013-05-28 02:00:00,
2013-05-27 21:05:00,74.7,58.9,29.94,East,87,0.0,0.0,58,0.00,,,0.00,Weather View 32 v70,2013-05-28 02:05:00,
2013-05-27 21:10:00,74.5,59.2,29.94,East,87,0.0,0.0,59,0.00,,,0.00,Weather View 32 v70,2013-05-28 02:10:00,
2013-05-27 21:20:00,74.3,59.5,29.94,East,87,0.0,0.0,60,0.00,,,0.00,Weather View 32 v70,2013-05-28 02:20:00,
2013-05-27 21:30:00,74.1,59.8,29.94,East,87,0.0,0.0,61,0.00,,,0.00,Weather View 32 v70,2013-05-28 02:30:00,
2013-05-27 21:40:00,73.8,59.9,29.94,East,87,0.0,0.0,62,0.00,,,0.00,Weather View 32 v70,2013-05-28 02:40:00,
2013-05-27 21:46:00,73.8,59.9,29.94,East,87,0.0,0.0,62,0.00,,,0.00,Weather View 32 v70,2013-05-28 02:46:00,
2013-05-27 21:54:00,73.6,60.2,29.94,East,87,0.0,0.0,63,0.00,,,0.00,Weather View 32 v70,2013-05-28 02:54:00,
2013-05-27 22:00:00,73.4,60.0,29.94,East,87,0.0,0.0,63,0.00,,,0.00,Weather View 32 v70,2013-05-28 03:00:00,
2013-05-27 22:05:00,73.4,60.0,29.94,East,87,0.0,0.0,63,0.00,,,0.00,Weather View 32 v70,2013-05-28 03:05:00,
2013-05-27 22:10:00,73.2,60.3,29.94,East,87,0.0,0.0,64,0.00,,,0.00,Weather View 32 v70,2013-05-28 03:10:00,
2013-05-27 22:15:00,71.6,58.3,29.94,East,87,0.0,0.0,63,0.00,,,0.00,Weather View 32 v70,2013-05-28 03:15:00,
2013-05-27 22:20:00,73.0,60.1,29.94,East,87,0.0,0.0,64,0.00,,,0.00,Weather View 32 v70,2013-05-28 03:20:00,
2013-05-27 22:25:00,71.2,58.8,29.94,East,87,0.0,0.0,65,0.00,,,0.00,Weather View 32 v70,2013-05-28 03:25:00,
2013-05-27 22:30:00,72.9,59.9,29.94,East,87,0.0,0.0,64,0.00,,,0.00,Weather View 32 v70,2013-05-28 03:30:00,
2013-05-27 22:35:00,72.9,59.9,29.94,East,87,0.0,0.0,64,0.00,,,0.00,Weather View 32 v70,2013-05-28 03:35:00,
2013-05-27 22:40:00,70.7,58.3,29.94,East,87,0.0,0.0,65,0.00,,,0.00,Weather View 32 v70,2013-05-28 03:40:00,
2013-05-27 22:45:00,72.7,59.3,29.94,East,87,0.0,0.0,63,0.00,,,0.00,Weather View 32 v70,2013-05-28 03:45:00,
2013-05-27 22:50:00,72.7,59.3,29.94,East,87,0.0,0.0,63,0.00,,,0.00,Weather View 32 v70,2013-05-28 03:50:00,
2013-05-27 22:55:00,72.3,59.0,29.94,East,87,0.0,0.0,63,0.00,,,0.00,Weather View 32 v70,2013-05-28 03:55:00,
2013-05-27 23:00:00,70.2,58.7,29.94,East,87,0.0,0.0,67,0.00,,,0.00,Weather View 32 v70,2013-05-28 04:00:00,
2013-05-27 23:05:00,70.2,58.7,29.94,East,87,0.0,0.0,67,0.00,,,0.00,Weather View 32 v70,2013-05-28 04:05:00,
2013-05-27 23:10:00,70.0,58.5,29.94,East,87,0.0,0.0,67,0.00,,,0.00,Weather View 32 v70,2013-05-28 04:10:00,
2013-05-27 23:15:00,70.0,58.5,29.94,East,87,0.0,0.0,67,0.00,,,0.00,Weather View 32 v70,2013-05-28 04:15:00,
2013-05-27 23:20:00,69.6,58.6,29.94,East,87,0.0,0.0,68,0.00,,,0.00,Weather View 32 v70,2013-05-28 04:20:00,
2013-05-27 23:25:00,69.4,58.8,29.94,East,87,0.0,0.0,69,0.00,,,0.00,Weather View 32 v70,2013-05-28 04:25:00,
2013-05-27 23:30:00,69.3,58.6,29.94,East,87,0.0,0.0,69,0.00,,,0.00,Weather View 32 v70,2013-05-28 04:30:00,
2013-05-27 23:35:00,69.1,58.9,29.94,East,87,0.0,0.0,70,0.00,,,0.00,Weather View 32 v70,2013-05-28 04:35:00,
2013-05-27 23:40:00,69.1,58.9,29.94,East,87,0.0,0.0,70,0.00,,,0.00,Weather View 32 v70,2013-05-28 04:40:00,
2013-05-27 23:45:00,69.1,58.9,29.94,East,87,0.0,0.0,70,0.00,,,0.00,Weather View 32 v70,2013-05-28 04:45:00,
2013-05-27 23:50:00,68.9,58.7,29.94,East,87,0.0,0.0,70,0.00,,,0.00,Weather View 32 v70,2013-05-28 04:50:00,
2013-05-27 23:55:00,68.7,58.5,29.94,East,87,0.0,0.0,70,0.00,,,0.00,Weather View 32 v70,2013-05-28 04:55:00,